KX4BE Weather Reports


Display with metric or nautical units.
time (UTC)temp
F
wind
direction
speed
MPH
gust
MPH
rain 1hr
in
rain 24hr
in
rain mn
in
humidity
%
barometer
mb
20260831220348 93 72 1.0 5.0 0.00 0.00 0.00 50 1021.0
20260831215843 93 68 3.0 5.0 0.00 0.00 0.00 49 1020.9
20260831215342 93 64 2.0 5.0 0.00 0.00 0.00 49 1020.9
20260831214840 93 65 2.0 7.0 0.00 0.00 0.00 49 1021.0
20260831214339 94 57 3.0 8.0 0.00 0.00 0.00 48 1021.0
20260831213836 94 116 4.0 4.0 0.00 0.00 0.00 48 1021.1
20260831213350 94 104 1.0 2.0 0.00 0.00 0.00 47 1021.1
20260831212907 94 297 0.0 2.0 0.00 0.00 0.00 46 1021.2
20260831212345 94 298 1.0 2.0 0.00 0.00 0.00 50 1021.2
20260831211843 94 22 0.0 3.0 0.00 0.00 0.00 47 1021.3
20260831211341 95 292 1.0 5.0 0.00 0.00 0.00 46 1021.3
20260831210836 95 89 3.0 5.0 0.00 0.00 0.00 49 1021.4
20260831210351 95 191 3.0 6.0 0.00 0.00 0.00 49 1021.3
20260831205845 95 126 2.0 6.0 0.00 0.00 0.00 50 1021.3
20260831205404 95 71 1.0 4.0 0.00 0.00 0.00 51 1021.2
20260831204840 94 72 1.0 5.0 0.00 0.00 0.00 51 1021.3
20260831204343 93 70 3.0 5.0 0.00 0.00 0.00 53 1021.4
20260831203841 93 120 2.0 3.0 0.00 0.00 0.00 54 1021.4
20260831203356 92 321 1.0 4.0 0.00 0.00 0.00 54 1021.5
20260831202834 93 136 1.0 3.0 0.00 0.00 0.00 53 1021.5
20260831202330 93 136 1.0 3.0 0.00 0.00 0.00 53 1021.8
20260831201847 93 140 1.0 3.0 0.00 0.00 0.00 54 1021.9
20260831201346 94 51 0.0 4.0 0.00 0.00 0.00 52 1022.0
20260831200844 95 58 1.0 5.0 0.00 0.00 0.00 51 1022.0
20260831200340 95 49 2.0 5.0 0.00 0.00 0.00 51 1022.1
20260831195837 96 350 2.0 5.0 0.00 0.00 0.00 51 1022.0
20260831195336 97 17 3.0 9.0 0.00 0.00 0.00 49 1022.2
20260831194850 97 158 4.0 9.0 0.00 0.00 0.00 49 1022.2
20260831194348 97 128 3.0 9.0 0.00 0.00 0.00 49 1022.2
20260831193847 97 113 3.0 9.0 0.00 0.00 0.00 48 1022.3
20260831193404 97 68 3.0 7.0 0.00 0.00 0.00 50 1022.4
20260831192838 97 103 2.0 4.0 0.00 0.00 0.00 50 1022.3
20260831192337 96 175 2.0 5.0 0.00 0.00 0.00 51 1022.3
20260831191832 96 158 2.0 8.0 0.00 0.00 0.00 53 1022.4
20260831191411 96 153 1.0 8.0 0.00 0.00 0.00 53 1022.5
20260831190842 96 124 3.0 8.0 0.00 0.00 0.00 52 1022.5
20260831190341 95 114 3.0 8.0 0.00 0.00 0.00 54 1022.5
20260831185839 95 284 2.0 6.0 0.00 0.00 0.00 53 1022.5
20260831185338 95 237 2.0 8.0 0.00 0.00 0.00 54 1022.5
20260831184833 94 169 3.0 6.0 0.00 0.00 0.00 54 1022.6
20260831184410 94 67 2.0 3.0 0.00 0.00 0.00 53 1022.6
20260831183904 94 69 0.0 5.0 0.00 0.00 0.00 55 1022.8
20260831183338 94 229 2.0 5.0 0.00 0.00 0.00 56 1022.9
20260831182836 93 99 1.0 6.0 0.00 0.00 0.00 58 1022.9
20260831182335 93 178 0.0 3.0 0.00 0.00 0.00 57 1023.0
20260831181832 93 277 1.0 6.0 0.00 0.00 0.00 56 1023.0
20260831181411 93 130 3.0 7.0 0.00 0.00 0.00 57 1023.0
20260831180847 93 136 1.0 4.0 0.00 0.00 0.00 57 1023.1
20260831180343 94 11 1.0 10.0 0.00 0.00 0.00 56 1023.2
20260831175839 94 108 6.0 10.0 0.00 0.00 0.00 57 1023.2
20260831175338 94 125 5.0 10.0 0.00 0.00 0.00 58 1023.2
20260831174836 93 157 3.0 10.0 0.00 0.00 0.00 58 1023.3
20260831174335 93 153 3.0 8.0 0.00 0.00 0.00 58 1023.3
20260831173851 92 152 4.0 7.0 0.00 0.00 0.00 60 1023.3
20260831173406 92 173 2.0 8.0 0.00 0.00 0.00 59 1023.3
20260831172841 92 100 4.0 8.0 0.00 0.00 0.00 58 1023.5
20260831172344 92 161 2.0 7.0 0.00 0.00 0.00 59 1023.4
20260831171858 92 44 2.0 7.0 0.00 0.00 0.00 58 1023.4
20260831171336 92 88 2.0 8.0 0.00 0.00 0.00 59 1023.5
20260831170854 92 5 2.0 9.0 0.00 0.00 0.00 59 1023.4
20260831170408 92 79 2.0 9.0 0.00 0.00 0.00 59 1023.4
20260831165904 92 108 5.0 9.0 0.00 0.00 0.00 59 1023.6
20260831165401 91 215 3.0 6.0 0.00 0.00 0.00 61 1023.6
20260831164857 91 205 2.0 5.0 0.00 0.00 0.00 60 1023.7
20260831164336 90 258 2.0 4.0 0.00 0.00 0.00 63 1023.8
20260831163851 90 274 1.0 8.0 0.00 0.00 0.00 64 1023.8
20260831163346 89 183 3.0 8.0 0.00 0.00 0.00 63 1023.9
20260831162840 89 150 3.0 6.0 0.00 0.00 0.00 64 1024.1
20260831162339 89 277 1.0 7.0 0.00 0.00 0.00 64 1024.0
20260831161856 89 163 1.0 7.0 0.00 0.00 0.00 65 1024.0
20260831161334 89 160 3.0 7.0 0.00 0.00 0.00 64 1023.9
20260831160851 89 244 2.0 7.0 0.00 0.00 0.00 65 1024.1
20260831160346 90 194 3.0 7.0 0.00 0.00 0.00 64 1024.1
20260831155833 90 178 4.0 8.0 0.00 0.00 0.00 64 1024.1
20260831155352 90 186 5.0 7.0 0.00 0.00 0.00 64 1024.1
20260831154847 90 113 2.0 5.0 0.00 0.00 0.00 65 1024.2
20260831154346 89 75 1.0 4.0 0.00 0.00 0.00 66 1024.3
20260831153903 89 209 2.0 6.0 0.00 0.00 0.00 67 1024.3
20260831153338 89 146 3.0 5.0 0.00 0.00 0.00 67 1024.1
20260831152833 89 172 1.0 5.0 0.00 0.00 0.00 68 1024.1
20260831152333 88 70 1.0 8.0 0.00 0.00 0.00 68 1024.2
20260831151833 88 167 3.0 5.0 0.00 0.00 0.00 68 1024.3
20260831151331 88 101 2.0 6.0 0.00 0.00 0.00 69 1024.3
20260831150848 88 126 2.0 6.0 0.00 0.00 0.00 69 1024.3
20260831150344 88 200 2.0 4.0 0.00 0.00 0.00 69 1024.4
20260831145837 87 155 3.0 5.0 0.00 0.00 0.00 70 1024.4
20260831145332 87 157 3.0 5.0 0.00 0.00 0.00 71 1024.5
20260831144849 86 123 2.0 5.0 0.00 0.00 0.00 72 1024.4
20260831144349 86 186 3.0 5.0 0.00 0.00 0.00 71 1024.4
20260831143846 86 134 3.0 5.0 0.00 0.00 0.00 73 1024.4
20260831143341 85 94 2.0 5.0 0.00 0.00 0.00 74 1024.4
20260831142858 85 118 1.0 6.0 0.00 0.00 0.00 74 1024.4
20260831142335 85 148 2.0 6.0 0.00 0.00 0.00 74 1024.3
20260831141831 85 119 2.0 6.0 0.00 0.00 0.00 74 1024.3
20260831141329 85 142 4.0 6.0 0.00 0.00 0.00 74 1024.4
20260831140847 85 131 3.0 7.0 0.00 0.00 0.00 74 1024.4
20260831140342 85 167 2.0 6.0 0.00 0.00 0.00 75 1024.4
20260831135840 84 218 3.0 6.0 0.00 0.00 0.00 75 1024.3
20260831135343 84 77 1.0 4.0 0.00 0.00 0.00 76 1024.4
20260831134837 84 199 3.0 5.0 0.00 0.00 0.00 75 1024.3
20260831134336 84 160 1.0 4.0 0.00 0.00 0.00 76 1024.3
20260831133834 84 117 2.0 4.0 0.00 0.00 0.00 76 1024.3
20260831133349 84 120 2.0 6.0 0.00 0.00 0.00 76 1024.3
20260831132846 84 241 3.0 6.0 0.00 0.00 0.00 76 1024.2
20260831132406 83 166 1.0 6.0 0.00 0.00 0.00 77 1024.4
20260831131900 83 197 0.0 0.0 0.00 0.00 0.00 78 1024.1
20260831131336 83 197 0.0 0.0 0.00 0.00 0.00 78 1024.3
20260831130852 82 197 0.0 0.0 0.00 0.00 0.00 80 1024.3
20260831130348 82 211 0.0 0.0 0.00 0.00 0.00 81 1024.3
20260831125845 81 211 0.0 0.0 0.00 0.00 0.00 83 1024.1
20260831124832 79 211 0.0 0.0 0.00 0.00 0.00 85 1024.0
20260831124412 78 211 0.0 0.0 0.00 0.00 0.00 86 1024.0
20260831123847 77 211 0.0 0.0 0.00 0.00 0.00 88 1023.9
20260831123342 77 211 0.0 0.0 0.00 0.00 0.00 90 1023.9
20260831122859 76 211 0.0 0.0 0.00 0.00 0.00 90 1023.8
20260831122336 76 211 0.0 0.0 0.00 0.00 0.00 92 1023.8
20260831121834 75 211 0.0 0.0 0.00 0.00 0.00 93 1023.8
20260831121338 74 211 0.0 0.0 0.00 0.00 0.00 93 1023.8
20260831120834 74 211 0.0 0.0 0.00 0.00 0.00 94 1023.8
20260831120409 73 211 0.0 0.0 0.00 0.00 0.00 94 1023.7
20260831115844 73 211 0.0 0.0 0.00 0.00 0.00 95 1023.7
20260831115403 73 211 0.0 0.0 0.00 0.00 0.00 95 1023.6
20260831114841 72 211 0.0 0.0 0.00 0.00 0.00 95 1023.7
20260831114340 72 211 0.0 0.0 0.00 0.00 0.00 95 1023.5
20260831113859 72 211 0.0 0.0 0.00 0.00 0.00 94 1023.5
20260831113332 72 211 0.0 0.0 0.00 0.00 0.00 94 1023.5
20260831112848 72 211 0.0 0.0 0.00 0.00 0.00 94 1023.3
20260831112347 72 211 0.0 0.0 0.00 0.00 0.00 94 1023.4
20260831111844 72 211 0.0 0.0 0.00 0.00 0.00 94 1023.4
20260831111343 72 211 0.0 0.0 0.00 0.00 0.00 94 1023.3
20260831110840 72 211 0.0 0.0 0.00 0.00 0.00 94 1023.3
20260831110334 72 211 0.0 0.0 0.00 0.00 0.00 94 1023.1
20260831105830 72 211 0.0 0.0 0.00 0.00 0.00 94 1023.1
20260831105349 72 211 0.0 0.0 0.00 0.00 0.00 94 1023.0
20260831104906 72 211 0.0 0.0 0.00 0.00 0.00 94 1023.0
20260831104344 72 211 0.0 0.0 0.00 0.00 0.00 94 1023.0
20260831103842 72 211 0.0 0.0 0.00 0.00 0.00 94 1023.0
20260831103339 72 211 0.0 0.0 0.00 0.00 0.00 94 1022.9
20260831102832 72 211 0.0 0.0 0.00 0.00 0.00 94 1022.9
20260831102412 72 211 0.0 0.0 0.00 0.00 0.00 94 1022.8
20260831101847 73 211 0.0 0.0 0.00 0.00 0.00 93 1023.0
20260831101346 73 211 0.0 1.0 0.00 0.00 0.00 93 1023.0
20260831100904 73 211 0.0 1.0 0.00 0.00 0.00 93 1022.8
20260831100338 73 211 0.0 1.0 0.00 0.00 0.00 93 1022.6
20260831095833 73 211 0.0 1.0 0.00 0.00 0.00 93 1022.5
20260831095330 73 211 0.0 1.0 0.00 0.00 0.00 93 1022.5
20260831094848 73 211 0.0 0.0 0.00 0.00 0.00 93 1022.4
20260831094406 73 211 0.0 0.0 0.00 0.00 0.00 93 1022.3
20260831093843 73 211 0.0 0.0 0.00 0.00 0.00 93 1022.3
20260831093358 73 211 0.0 0.0 0.00 0.00 0.00 92 1022.3
20260831092852 74 211 0.0 0.0 0.00 0.00 0.00 92 1022.2
20260831092410 74 211 0.0 1.0 0.00 0.00 0.00 92 1022.3
20260831091904 74 211 0.0 1.0 0.00 0.00 0.00 92 1022.2
20260831091342 74 211 0.0 0.0 0.00 0.00 0.00 92 1022.2
20260831090840 74 211 0.0 1.0 0.00 0.00 0.00 92 1022.2
20260831090335 74 211 0.0 1.0 0.00 0.00 0.00 92 1022.2
20260831085831 74 211 0.0 0.0 0.00 0.00 0.00 91 1022.1
20260831085330 74 211 0.0 0.0 0.00 0.00 0.00 91 1022.1
20260831084843 74 211 0.0 0.0 0.00 0.00 0.00 91 1022.1
20260831084343 74 211 0.0 0.0 0.00 0.00 0.00 90 1022.1
20260831083840 74 211 0.0 1.0 0.00 0.00 0.00 90 1022.0
20260831083339 74 211 0.0 1.0 0.00 0.00 0.00 90 1022.0
20260831082837 75 211 0.0 2.0 0.00 0.00 0.00 90 1022.0
20260831082336 75 211 0.0 2.0 0.00 0.00 0.00 89 1022.0
20260831081853 75 211 0.0 1.0 0.00 0.00 0.00 89 1022.1
20260831081409 75 70 0.0 0.0 0.00 0.00 0.00 89 1022.1
20260831080846 75 70 0.0 0.0 0.00 0.00 0.00 89 1022.2
20260831080341 75 70 0.0 0.0 0.00 0.00 0.00 88 1022.1
20260831075900 75 70 0.0 0.0 0.00 0.00 0.00 88 1022.1
20260831075338 75 70 0.0 0.0 0.00 0.00 0.00 88 1022.1
20260831074836 75 70 0.0 0.0 0.00 0.00 0.00 88 1022.0
20260831074355 76 70 0.0 0.0 0.00 0.00 0.00 88 1022.0
20260831073909 76 70 0.0 0.0 0.00 0.00 0.00 87 1021.9
20260831073403 76 70 0.0 0.0 0.00 0.00 0.00 88 1022.0
20260831072859 76 70 0.0 0.0 0.00 0.00 0.00 87 1022.0
20260831072338 76 70 0.0 0.0 0.00 0.00 0.00 87 1021.9
20260831071836 76 70 0.0 0.0 0.00 0.00 0.00 87 1022.0
20260831071334 76 70 0.0 1.0 0.00 0.00 0.00 88 1022.0
20260831070849 76 70 0.0 0.0 0.00 0.00 0.00 88 1022.1
20260831070402 76 70 0.0 0.0 0.00 0.00 0.00 88 1022.1
20260831065837 76 70 0.0 0.0 0.00 0.00 0.00 88 1022.2
20260831065336 76 70 0.0 0.0 0.00 0.00 0.00 88 1022.3
20260831064852 76 70 0.0 0.0 0.00 0.00 0.00 87 1022.2
20260831064410 76 70 0.0 0.0 0.00 0.00 0.00 88 1022.3
20260831063846 76 70 0.0 0.0 0.00 0.00 0.00 88 1022.2
20260831063341 76 70 0.0 0.0 0.00 0.00 0.00 88 1022.3
20260831062838 76 70 0.0 0.0 0.00 0.00 0.00 88 1022.2
20260831062337 76 70 0.0 0.0 0.00 0.00 0.00 88 1022.2
20260831061836 76 70 0.0 0.0 0.00 0.00 0.00 88 1022.1
20260831061338 76 70 0.0 0.0 0.00 0.00 0.00 88 1022.2
20260831060836 76 70 0.0 0.0 0.00 0.00 0.00 88 1022.3
20260831060353 76 70 0.0 0.0 0.00 0.00 0.00 88 1022.3
20260831055847 76 70 0.0 0.0 0.00 0.00 0.00 88 1022.3
20260831055345 76 70 0.0 0.0 0.00 0.00 0.00 88 1022.3
20260831054842 76 70 0.0 1.0 0.00 0.00 0.00 88 1022.3
20260831054341 76 70 0.0 1.0 0.00 0.00 0.00 87 1022.3
20260831053839 76 70 0.0 2.0 0.00 0.00 0.00 87 1022.3
20260831053335 76 70 0.0 3.0 0.00 0.00 0.00 87 1022.2
20260831052832 76 70 0.0 0.0 0.00 0.00 0.00 87 1022.3
20260831052349 76 70 0.0 0.0 0.00 0.00 0.00 87 1022.2
20260831051847 76 70 0.0 0.0 0.00 0.00 0.00 87 1022.3
20260831051347 76 70 0.0 0.0 0.00 0.00 0.00 87 1022.2
20260831050907 76 70 0.0 0.0 0.00 0.00 0.00 87 1022.3
20260831050342 76 70 0.0 0.0 0.00 0.00 0.00 87 1022.3
20260831045840 77 70 0.0 0.0 0.00 0.00 0.00 87 1022.3
20260831045340 77 70 0.0 0.0 0.00 0.00 0.00 87 1022.2
20260831044838 77 70 0.0 0.0 0.00 0.00 0.00 87 1022.3
20260831044338 77 70 0.0 0.0 0.00 0.00 0.00 87 1022.4
20260831043836 77 70 0.0 0.0 0.00 0.00 0.00 87 1022.4
20260831043331 77 70 0.0 0.0 0.00 0.00 0.00 87 1022.4
20260831042849 77 70 0.0 0.0 0.00 0.00 0.00 86 1022.3
20260831042408 77 70 0.0 0.0 0.00 0.00 0.00 86 1022.3
20260831041901 77 70 0.0 0.0 0.00 0.00 0.00 86 1022.3
20260831041339 77 70 0.0 0.0 0.00 0.00 0.00 85 1022.3
20260831040856 77 70 0.0 0.0 0.00 0.00 0.00 86 1022.3
20260831040330 78 70 0.0 0.0 0.00 0.00 0.00 85 1022.3
20260831035847 78 70 0.0 0.0 0.00 0.00 0.00 85 1022.3
20260831035346 78 70 0.0 0.0 0.00 0.00 0.00 85 1022.3
20260831034843 78 70 0.0 0.0 0.00 0.00 0.00 85 1022.4
20260831034341 78 70 0.0 0.0 0.00 0.00 0.00 85 1022.4
20260831033839 78 70 0.0 0.0 0.00 0.00 0.00 84 1022.4
20260831033334 78 70 0.0 0.0 0.00 0.00 0.00 84 1022.3
20260831032832 78 70 0.0 0.0 0.00 0.00 0.00 82 1022.4
20260831032331 78 70 0.0 0.0 0.00 0.00 0.00 82 1022.4
20260831031831 79 70 0.0 0.0 0.00 0.00 0.00 82 1022.4
20260831031350 79 70 0.0 0.0 0.00 0.00 0.00 81 1022.3
20260831030904 79 70 0.0 0.0 0.00 0.00 0.00 81 1022.3
20260831030337 79 70 0.0 0.0 0.00 0.00 0.00 81 1022.3
20260831025834 79 70 0.0 0.0 0.00 0.00 0.00 81 1022.4
20260831025332 79 70 0.0 0.0 0.00 0.00 0.00 81 1022.4
20260831024909 79 70 0.0 0.0 0.00 0.00 0.00 81 1022.5
20260831024346 79 70 0.0 0.0 0.00 0.00 0.00 81 1022.4
20260831023841 79 70 0.0 0.0 0.00 0.00 0.00 80 1022.3
20260831023357 80 70 0.0 0.0 0.00 0.00 0.00 80 1022.5
20260831022832 80 70 0.0 0.0 0.00 0.00 0.00 80 1022.4
20260831022330 80 70 0.0 0.0 0.00 0.00 0.00 79 1022.4
20260831021846 80 70 0.0 0.0 0.00 0.00 0.00 79 1022.3
20260831021345 80 70 0.0 0.0 0.00 0.00 0.00 79 1022.3
20260831020842 80 70 0.0 0.0 0.00 0.00 0.00 79 1022.3
20260831020335 80 70 0.0 0.0 0.00 0.00 0.00 79 1022.2
20260831015853 80 70 0.0 1.0 0.00 0.00 0.00 79 1022.0
20260831015351 81 70 0.0 1.0 0.00 0.00 0.00 79 1022.0
20260831014909 81 70 0.0 0.0 0.00 0.00 0.00 78 1021.9
20260831014346 81 70 0.0 1.0 0.00 0.00 0.00 78 1022.0
20260831013844 81 70 1.0 1.0 0.00 0.00 0.00 78 1021.9
20260831013339 81 70 1.0 2.0 0.00 0.00 0.00 77 1021.8
20260831012834 81 70 327.0 327.0 0.00 0.00 0.00 77 1021.2
20260831012356 82 70 1.0 1.0 0.00 0.00 0.00 77 1021.6
20260831011852 82 70 1.0 1.0 0.00 0.00 0.00 76 1021.6
20260831011334 82 70 1.0 1.0 0.00 0.00 0.00 76 1021.6
20260831010904 82 70 1.0 1.0 0.00 0.00 0.00 75 1021.6
20260831010359 83 70 1.0 1.0 0.00 0.00 0.00 75 1021.4
20260831005836 83 70 0.0 1.0 0.00 0.00 0.00 74 1021.4
20260831005335 83 70 0.0 2.0 0.00 0.00 0.00 73 1021.4
20260831004833 84 70 1.0 3.0 0.00 0.00 0.00 73 1021.4
20260831004332 84 70 1.0 3.0 0.00 0.00 0.00 72 1021.3
20260831003850 84 70 0.0 2.0 0.00 0.00 0.00 72 1021.3
20260831003345 84 70 0.0 2.0 0.00 0.00 0.00 72 1021.2
20260831002841 84 70 0.0 2.0 0.00 0.00 0.00 71 1021.3
20260831002338 84 70 0.0 1.0 0.00 0.00 0.00 71 1021.2
20260831001836 84 70 0.0 1.0 0.00 0.00 0.00 71 1021.1
20260831001336 85 70 0.0 2.0 0.00 0.00 0.00 70 1021.1
20260831000912 85 70 0.0 3.0 0.00 0.00 0.00 70 1021.1
20260831000347 85 71 0.0 3.0 0.00 0.00 0.00 69 1021.1
20260830235843 85 69 1.0 3.0 0.00 0.00 0.00 68 1021.1
20260830235341 85 81 0.0 0.0 0.00 0.00 0.00 68 1021.1
20260830234837 85 81 0.0 0.0 0.00 0.00 0.00 68 1021.2
20260830234356 85 81 0.0 1.0 0.00 0.00 0.00 68 1021.1
20260830233852 86 81 0.0 3.0 0.00 0.00 0.00 67 1021.2
20260830233331 86 81 0.0 3.0 0.00 0.00 0.00 66 1021.2
20260830232848 86 81 0.0 1.0 0.00 0.00 0.00 66 1021.1
20260830232407 86 81 0.0 1.0 0.00 0.00 0.00 66 1021.2
20260830231842 86 81 0.0 2.0 0.00 0.00 0.00 65 1021.1
20260830231400 87 81 0.0 2.0 0.00 0.00 0.00 65 1021.1
20260830230834 87 81 0.0 2.0 0.00 0.00 0.00 63 1021.1
20260830230349 87 81 1.0 2.0 0.00 0.00 0.00 63 1021.1
20260830225905 87 81 0.0 1.0 0.00 0.00 0.00 64 1021.2
20260830225343 87 81 0.0 1.0 0.00 0.00 0.00 63 1021.1
20260830224840 87 81 0.0 1.0 0.00 0.00 0.00 64 1021.1
20260830224336 87 81 0.0 1.0 0.00 0.00 0.00 64 1021.0
20260830223834 88 81 1.0 2.0 0.00 0.00 0.00 62 1021.1
20260830223409 88 81 1.0 2.0 0.00 0.00 0.00 62 1021.1
20260830222845 88 81 0.0 2.0 0.00 0.00 0.00 61 1021.1
20260830222343 88 81 0.0 3.0 0.00 0.00 0.00 61 1021.1
20260830221840 89 81 1.0 3.0 0.00 0.00 0.00 61 1021.1
20260830221338 89 81 1.0 2.0 0.00 0.00 0.00 60 1021.1
20260830220916 89 81 0.0 3.0 0.00 0.00 0.00 60 1021.1